STARLINK-34025, 63824

Orbit data source: Space-Track

STARLINK-34025, 63824 is a payload satellite owned by SpaceX/Seattle (US) in LEO that was launched on Sun, 04 May 2025 UTC via an FALCON 9 launch vehicle from the Air Force Eastern Test Range (AFETR). Payload-class satellites include a variety of spacecraft equipped with specific instruments for various scientific and technological missions. These include communications satellites like Starlink; space stations such as the ISS; scientific satellites like the Hubble; Earth observation satellites from companies like Planet Labs, Umbra, and HawkEye 360; GPS; miniature CubeSats for education and research; and military/defense satellites.

Loading next visibility...
Identifier
63824, 2025-092W
Orbit
LEO
Last TLE update
7 hours ago
Origin
Manufacturer
SpaceX/Seattle
Mission
Operational Commercial Communications
Bus & Motor
STARLINK V2MO, Unknown motor
Mass
575 kg wet, ~530 kg dry
Launch date (UTC)
2025-05-04 (2 months ago)
Launch vehicle
FALCON 9
Launch site
Air Force Eastern Test Range (AFETR)
Object type
Payload
Rocket body
Debris
Shape & HBR
Box + 1 Pan, 29 m
Radar Cross Section
41.120 m², Large (>1 m²)

Expand to show TLE details & history

TLE from 7 hours ago
0 STARLINK-34025
1 63824U 25092W   25182.89897546  .00019721  00000-0  72371-3 0  9998
2 63824  42.9989 148.5129 0000924 294.3790  65.6966 15.27604642 10203
Epoch: 2025-07-01T21:34Z
TLE epoch observation values (Epoch: 2025-07-01T21:34:31.479Z)
Latitude
0.00003°
Longitude
-95.30604°
Altitude
482.49 km
Speed
7.626 km/s
True Right ascension
09h 54m 03s
True Declination
0° 00' 00"
Sunlit
Object was in daylight at epoch
Visualization orbit readout
Latitude
-34.73754°
Longitude
130.6633°
Altitude
492.516 km
Speed
7.619 km/s
Apparent Right ascension
02h 37m 48s
Apparent Declination
-40° 16' 19"
Sunlit
Object is in daylight
Visualization observer readout
Local Sidereal Time
16:34:24
Azimuth
100.4° ESE
Elevation
-67.801°
Doppler factor
1
Orbital elements
Apogee altitude
485.555 km
Perigee altitude
484.287 km
Semi-major axis
6,863.058 km
Eccentricity
0.00009
Inclination
42.9989°
RAAN
148.5129°
Arg. of periapsis
294.379°
True anomaly
Unknown
Mean anomaly
65.6966°
Eccentric anomaly
Unknown
Mean motion
3.81739 °/min
Orbital period
94.31 mins
BSTAR
0.00072371
Loading maneuver chart data...
Loading SW <> Apogee altitude chart data...
Loading historical data...
Loading historical data...
Loading historical data...
Loading historical data...
Loading historical data...
Loading historical data...
Loading historical data...

STARLINK-34025 Visibility forecast

Observer location: undefined°, undefined°

Span
Click to sort rows by Start time (UTC) header in descending order
Start Az.
Max El. time (UTC)
Max El. Az.
Max El.
End time (UTC)
End Az.
7 mins2025-07-02 05:50:55.373Z287.672° WNW2025-07-02 05:53:55.373Z277.799° WNW43.945°2025-07-02 05:57:55.373Z110.762° ESE
4 mins2025-07-03 00:27:55.373Z185.198° SSW2025-07-03 00:28:55.373Z161.845° S23.752°2025-07-03 00:31:55.373Z95.014° ESE
5 mins2025-07-03 02:05:55.373Z257.663° W2025-07-03 02:07:55.373Z293.824° NW44.113°2025-07-03 02:10:55.373Z70.18° E
6 mins2025-07-03 03:44:55.373Z290.655° WNW2025-07-03 03:46:55.373Z337.622° N37.008°2025-07-03 03:50:55.373Z78.713° E
|